Retour au catalogue

DELTA 1 DEB

ActifSSO
NORAD 10657·DEBRIS·🇺🇸 United States

Lancé Jul 29, 1976 depuis Vandenberg Space Force Base

Loading…

Prochains Passages (prochaines 24 heures)

TLE

FraisSource: Space-Track

Époque: Sep 14, 2026, 10:33 UTC

1 10657U 76077T   26257.43995581 -.00000049  00000-0 -23846-4 0  9994
2 10657 102.6140 242.4628 0082895 261.5802 267.1998 12.25781605243232

Suivez DELTA 1 DEB en temps réel avec AllMySat

Download on the App Store